AHS9923 LEBL-LEMD

Flight info

Callsign AHS9923
Flight time 0h 59m
Altitude 29000
Route SENIA Z596 NEXAS N975 ADUXO
Aircraft A339/H-SADE1E2E3GHIM1P2RWXY/LB2D1

Departure

Time 2026-05-06 04:48
Airport Josep Tarradellas Barcelona-El Prat Airport (LEBL)

Arrival

Time 2026-05-06 05:48
Airport Adolfo Suárez Madrid–Barajas Airport (LEMD)
Time Latitude Longitude Altitude Speed Heading
2026-05-06 04:34 41.28767 2.07990 20 ft 0 kts 100°
2026-05-06 04:41 41.28767 2.07993 24 ft 1 kts 100°
2026-05-06 04:41 41.28766 2.08002 22 ft 1 kts 100°
2026-05-06 04:42 41.28764 2.08017 20 ft 2 kts 99°
2026-05-06 04:42 41.28761 2.08041 19 ft 3 kts 99°
2026-05-06 04:42 41.28757 2.08070 22 ft 3 kts 99°
2026-05-06 04:42 41.28752 2.08108 18 ft 5 kts 99°
2026-05-06 04:43 41.28744 2.08172 18 ft 9 kts 99°
2026-05-06 04:43 41.28737 2.08229 19 ft 0 kts 99°
2026-05-06 04:43 41.28737 2.08231 19 ft 0 kts 104°
2026-05-06 04:44 41.28729 2.08237 24 ft 2 kts 139°
2026-05-06 04:44 41.28707 2.08233 21 ft 5 kts 201°
2026-05-06 04:44 41.28673 2.08166 24 ft 14 kts 241°
2026-05-06 04:44 41.28621 2.08024 21 ft 19 kts 245°
2026-05-06 04:45 41.28565 2.07863 22 ft 18 kts 245°
2026-05-06 04:45 41.28511 2.07704 22 ft 19 kts 246°
2026-05-06 04:45 41.28455 2.07540 23 ft 20 kts 245°
2026-05-06 04:45 41.28395 2.07385 24 ft 16 kts 232°
2026-05-06 04:46 41.28341 2.07349 22 ft 0 kts 185°
2026-05-06 04:46 41.28339 2.07349 21 ft 2 kts 182°
2026-05-06 04:46 41.28313 2.07355 20 ft 5 kts 168°
2026-05-06 04:46 41.28264 2.07375 21 ft 9 kts 161°
2026-05-06 04:47 41.28242 2.07418 25 ft 4 kts 105°
2026-05-06 04:47 41.28244 2.07457 25 ft 4 kts 77°
2026-05-06 04:47 41.28246 2.07465 23 ft 0 kts 70°
2026-05-06 04:47 41.28287 2.07599 27 ft 52 kts 66°
2026-05-06 04:48 41.28552 2.08372 25 ft 131 kts 65°
2026-05-06 04:48 41.29029 2.09752 145 ft 189 kts 64°
2026-05-06 04:48 41.29444 2.11455 1144 ft 190 kts 81°
2026-05-06 04:48 41.29322 2.13193 2261 ft 194 kts 101°
2026-05-06 04:49 41.29077 2.14863 2753 ft 223 kts 97°
2026-05-06 04:49 41.28947 2.16961 3675 ft 232 kts 93°
2026-05-06 04:49 41.28790 2.19206 4325 ft 257 kts 99°
2026-05-06 04:49 41.28439 2.21661 4876 ft 282 kts 102°
2026-05-06 04:50 41.28145 2.24252 5840 ft 283 kts 97°
2026-05-06 04:50 41.27987 2.26862 6802 ft 289 kts 96°
2026-05-06 04:50 41.27729 2.29557 7672 ft 293 kts 102°
2026-05-06 04:50 41.27175 2.32151 8554 ft 295 kts 116°
2026-05-06 04:51 41.26211 2.34563 9430 ft 297 kts 123°
2026-05-06 04:51 41.25226 2.37002 10256 ft 303 kts 118°
2026-05-06 04:51 41.24388 2.39601 10985 ft 312 kts 116°
2026-05-06 04:51 41.23455 2.42318 11391 ft 330 kts 120°
2026-05-06 04:52 41.22340 2.45085 11763 ft 351 kts 121°
2026-05-06 04:52 41.21217 2.48057 12116 ft 373 kts 118°
2026-05-06 04:52 41.20126 2.51316 12525 ft 392 kts 117°
2026-05-06 04:52 41.18974 2.54547 13570 ft 390 kts 120°
2026-05-06 04:53 41.17713 2.57793 14362 ft 397 kts 121°
2026-05-06 04:53 41.16450 2.61045 15049 ft 401 kts 124°
2026-05-06 04:53 41.14638 2.63819 15798 ft 393 kts 147°
2026-05-06 04:53 41.12313 2.65653 16572 ft 390 kts 162°
2026-05-06 04:54 41.09707 2.66435 17323 ft 383 kts 180°
2026-05-06 04:54 41.07063 2.66352 18188 ft 379 kts 190°
2026-05-06 04:54 41.04398 2.66024 18872 ft 385 kts 190°
2026-05-06 04:54 41.01720 2.65751 19669 ft 385 kts 191°
2026-05-06 04:55 40.99142 2.64969 20329 ft 378 kts 206°
2026-05-06 04:55 40.96834 2.63401 21071 ft 374 kts 217°
2026-05-06 04:55 40.94850 2.61175 21804 ft 372 kts 229°
2026-05-06 04:55 40.93319 2.58424 22546 ft 372 kts 240°
2026-05-06 04:56 40.92307 2.55284 23277 ft 375 kts 251°
2026-05-06 04:56 40.91560 2.51963 23874 ft 378 kts 251°
2026-05-06 04:56 40.90767 2.48611 24460 ft 380 kts 251°
2026-05-06 04:56 40.89964 2.45276 25020 ft 384 kts 251°
2026-05-06 04:57 40.89194 2.41897 25588 ft 387 kts 252°
2026-05-06 04:57 40.88411 2.38484 26155 ft 389 kts 251°
2026-05-06 04:57 40.87590 2.35068 26687 ft 393 kts 251°
2026-05-06 04:57 40.86764 2.31597 27243 ft 396 kts 251°
2026-05-06 04:58 40.86224 2.29260 27614 ft 398 kts 252°
2026-05-06 04:58 40.85138 2.24620 28329 ft 402 kts 251°
2026-05-06 04:58 40.84567 2.22243 28683 ft 404 kts 251°
2026-05-06 04:58 40.83831 2.18640 28981 ft 415 kts 258°
2026-05-06 04:59 40.83656 2.14817 28923 ft 421 kts 268°
2026-05-06 04:59 40.83905 2.07069 28937 ft 422 kts 268°
2026-05-06 05:00 40.84097 1.99367 28942 ft 421 kts 269°
2026-05-06 05:00 40.84323 1.91621 28948 ft 420 kts 268°
2026-05-06 05:01 40.84520 1.83908 28941 ft 420 kts 269°
2026-05-06 05:01 40.84720 1.76199 28943 ft 419 kts 268°
2026-05-06 05:02 40.84911 1.68768 28944 ft 418 kts 268°
2026-05-06 05:02 40.85093 1.61076 28948 ft 417 kts 268°
2026-05-06 05:03 40.85283 1.53416 28942 ft 417 kts 268°
2026-05-06 05:03 40.85453 1.45802 28938 ft 416 kts 268°
2026-05-06 05:04 40.85629 1.38150 28954 ft 416 kts 268°
2026-05-06 05:04 40.85796 1.30504 28936 ft 416 kts 268°
2026-05-06 05:05 40.85955 1.22901 28940 ft 415 kts 268°
2026-05-06 05:05 40.86115 1.15259 28946 ft 415 kts 268°
2026-05-06 05:06 40.86264 1.07628 28947 ft 415 kts 268°
2026-05-06 05:06 40.86412 1.00006 28954 ft 415 kts 268°
2026-05-06 05:07 40.86554 0.92389 28958 ft 415 kts 268°
2026-05-06 05:07 40.86689 0.84739 28958 ft 415 kts 268°
2026-05-06 05:08 40.86823 0.77148 28964 ft 415 kts 268°
2026-05-06 05:08 40.86928 0.69516 28970 ft 415 kts 267°
2026-05-06 05:09 40.86956 0.61931 28974 ft 414 kts 267°
2026-05-06 05:09 40.87024 0.54328 28973 ft 415 kts 266°
2026-05-06 05:10 40.87061 0.46700 28979 ft 414 kts 267°
2026-05-06 05:10 40.87107 0.39082 28987 ft 414 kts 266°
2026-05-06 05:11 40.87142 0.31482 28989 ft 414 kts 267°
2026-05-06 05:11 40.87174 0.23917 28991 ft 413 kts 266°
2026-05-06 05:12 40.87199 0.16342 28995 ft 413 kts 267°
2026-05-06 05:12 40.87223 0.08754 29004 ft 412 kts 266°
2026-05-06 05:13 40.87239 0.01190 29000 ft 411 kts 266°
2026-05-06 05:13 40.87250 -0.06383 29013 ft 412 kts 266°
2026-05-06 05:14 40.87258 -0.13924 28996 ft 412 kts 266°
2026-05-06 05:14 40.87259 -0.21486 29011 ft 411 kts 266°
2026-05-06 05:15 40.87257 -0.29019 29011 ft 410 kts 266°
2026-05-06 05:15 40.87248 -0.36554 29014 ft 410 kts 266°
2026-05-06 05:16 40.87236 -0.44082 29022 ft 410 kts 266°
2026-05-06 05:16 40.87218 -0.51645 29019 ft 410 kts 266°
2026-05-06 05:17 40.87196 -0.59140 29026 ft 409 kts 266°
2026-05-06 05:17 40.87169 -0.66663 29021 ft 409 kts 266°
2026-05-06 05:18 40.87136 -0.74163 29025 ft 409 kts 266°
2026-05-06 05:18 40.86457 -0.81560 29012 ft 405 kts 253°
2026-05-06 05:19 40.84541 -0.88523 29036 ft 404 kts 250°
2026-05-06 05:19 40.82638 -0.95526 29040 ft 404 kts 249°
2026-05-06 05:20 40.80683 -1.02465 29016 ft 405 kts 250°
2026-05-06 05:20 40.78756 -1.09449 29019 ft 406 kts 249°
2026-05-06 05:21 40.76788 -1.16466 29029 ft 405 kts 250°
2026-05-06 05:21 40.74849 -1.23408 29025 ft 406 kts 250°
2026-05-06 05:22 40.72884 -1.30403 29022 ft 406 kts 250°
2026-05-06 05:22 40.70918 -1.37411 29018 ft 406 kts 250°
2026-05-06 05:23 40.68961 -1.44352 29045 ft 406 kts 250°
2026-05-06 05:23 40.65997 -1.54832 29039 ft 407 kts 250°
2026-05-06 05:24 40.65003 -1.58344 28426 ft 415 kts 250°
2026-05-06 05:24 40.63997 -1.61885 27847 ft 408 kts 250°
2026-05-06 05:24 40.63005 -1.65376 27320 ft 398 kts 250°
2026-05-06 05:24 40.62053 -1.68719 26814 ft 389 kts 250°
2026-05-06 05:25 40.61114 -1.72012 26302 ft 380 kts 249°
2026-05-06 05:25 40.60193 -1.75237 25808 ft 373 kts 250°
2026-05-06 05:25 40.59288 -1.78404 25326 ft 366 kts 250°
2026-05-06 05:25 40.58405 -1.81499 24847 ft 360 kts 250°
2026-05-06 05:26 40.57519 -1.84587 24362 ft 355 kts 250°
2026-05-06 05:26 40.56658 -1.87589 23909 ft 351 kts 250°
2026-05-06 05:26 40.55796 -1.90595 23409 ft 348 kts 250°
2026-05-06 05:26 40.54950 -1.93535 22941 ft 343 kts 250°
2026-05-06 05:27 40.54108 -1.96457 22489 ft 339 kts 250°
2026-05-06 05:27 40.53275 -1.99353 22057 ft 336 kts 250°
2026-05-06 05:27 40.52453 -2.02204 21613 ft 334 kts 250°
2026-05-06 05:27 40.51625 -2.05071 21169 ft 332 kts 249°
2026-05-06 05:28 40.50636 -2.07776 20762 ft 329 kts 239°
2026-05-06 05:28 40.49388 -2.10238 20460 ft 324 kts 239°
2026-05-06 05:28 40.48232 -2.12778 20146 ft 319 kts 242°
2026-05-06 05:28 40.47148 -2.15293 19832 ft 317 kts 241°
2026-05-06 05:29 40.45987 -2.17718 19499 ft 315 kts 239°
2026-05-06 05:29 40.44793 -2.20138 19188 ft 314 kts 240°
2026-05-06 05:29 40.43674 -2.22589 18870 ft 315 kts 241°
2026-05-06 05:29 40.42548 -2.25078 18553 ft 315 kts 240°
2026-05-06 05:30 40.41372 -2.27524 18209 ft 315 kts 239°
2026-05-06 05:30 40.40212 -2.29950 17864 ft 315 kts 240°
2026-05-06 05:30 40.39093 -2.32385 17559 ft 312 kts 240°
2026-05-06 05:30 40.37957 -2.34823 17238 ft 309 kts 240°
2026-05-06 05:31 40.36823 -2.37188 16929 ft 305 kts 240°
2026-05-06 05:31 40.35725 -2.39521 16631 ft 301 kts 240°
2026-05-06 05:31 40.34634 -2.41867 16314 ft 296 kts 240°
2026-05-06 05:31 40.33564 -2.44126 16018 ft 292 kts 240°
2026-05-06 05:32 40.32498 -2.46367 15716 ft 288 kts 240°
2026-05-06 05:32 40.31465 -2.48573 15436 ft 282 kts 240°
2026-05-06 05:32 40.30434 -2.50759 15158 ft 277 kts 240°
2026-05-06 05:32 40.29427 -2.52872 14875 ft 272 kts 240°
2026-05-06 05:33 40.28441 -2.54956 14611 ft 267 kts 240°
2026-05-06 05:33 40.27468 -2.57024 14343 ft 262 kts 240°
2026-05-06 05:33 40.26526 -2.59040 14057 ft 255 kts 243°
2026-05-06 05:33 40.26044 -2.61187 13864 ft 245 kts 267°
2026-05-06 05:34 40.26101 -2.63442 13580 ft 248 kts 271°
2026-05-06 05:34 40.26085 -2.65687 13308 ft 246 kts 265°
2026-05-06 05:34 40.25965 -2.67912 13053 ft 245 kts 267°
2026-05-06 05:34 40.25990 -2.70161 12799 ft 246 kts 272°
2026-05-06 05:35 40.26071 -2.72394 12557 ft 246 kts 270°
2026-05-06 05:35 40.26024 -2.74632 12317 ft 245 kts 266°
2026-05-06 05:35 40.25960 -2.76856 12073 ft 246 kts 269°
2026-05-06 05:35 40.25997 -2.79080 11811 ft 246 kts 271°
2026-05-06 05:36 40.26021 -2.81330 11571 ft 245 kts 269°
2026-05-06 05:36 40.25966 -2.83556 11322 ft 246 kts 268°
2026-05-06 05:36 40.25944 -2.85789 11062 ft 246 kts 270°
2026-05-06 05:36 40.25977 -2.88039 10827 ft 245 kts 270°
2026-05-06 05:37 40.25963 -2.90257 10582 ft 245 kts 268°
2026-05-06 05:37 40.25919 -2.92480 10320 ft 239 kts 269°
2026-05-06 05:37 40.25923 -2.94638 10088 ft 235 kts 271°
2026-05-06 05:37 40.25935 -2.96761 9859 ft 234 kts 269°
2026-05-06 05:38 40.25902 -2.98866 9602 ft 231 kts 268°
2026-05-06 05:38 40.25881 -3.00964 9357 ft 225 kts 270°
2026-05-06 05:38 40.25893 -3.02982 9134 ft 221 kts 270°
2026-05-06 05:38 40.25879 -3.04986 8921 ft 220 kts 269°
2026-05-06 05:39 40.25845 -3.06978 8687 ft 219 kts 269°
2026-05-06 05:39 40.25845 -3.08967 8481 ft 219 kts 270°
2026-05-06 05:39 40.25851 -3.10963 8255 ft 219 kts 269°
2026-05-06 05:39 40.25816 -3.12947 8040 ft 218 kts 268°
2026-05-06 05:40 40.25926 -3.14884 7922 ft 212 kts 283°
2026-05-06 05:40 40.26173 -3.16120 7986 ft 208 kts 285°
2026-05-06 05:40 40.26502 -3.18236 7722 ft 202 kts 275°
2026-05-06 05:40 40.26579 -3.19484 7635 ft 214 kts 274°
2026-05-06 05:41 40.26785 -3.21454 7287 ft 215 kts 281°
2026-05-06 05:41 40.27126 -3.23338 6980 ft 211 kts 282°
2026-05-06 05:41 40.27377 -3.25156 6992 ft 200 kts 277°
2026-05-06 05:41 40.27560 -3.26960 6940 ft 210 kts 278°
2026-05-06 05:42 40.27812 -3.28828 6585 ft 210 kts 281°
2026-05-06 05:42 40.28091 -3.30709 6199 ft 209 kts 279°
2026-05-06 05:42 40.28374 -3.32544 5953 ft 202 kts 290°
2026-05-06 05:42 40.29170 -3.33949 6007 ft 188 kts 317°
2026-05-06 05:43 40.30164 -3.35191 5994 ft 196 kts 309°
2026-05-06 05:43 40.30925 -3.36613 5997 ft 190 kts 302°
2026-05-06 05:43 40.31762 -3.38017 5763 ft 199 kts 319°
2026-05-06 05:43 40.32894 -3.38989 5600 ft 192 kts 328°
2026-05-06 05:44 40.34029 -3.39912 5297 ft 198 kts 327°
2026-05-06 05:44 40.35197 -3.40941 4931 ft 201 kts 324°
2026-05-06 05:44 40.36266 -3.42108 4646 ft 199 kts 319°
2026-05-06 05:44 40.37282 -3.43298 4391 ft 192 kts 320°
2026-05-06 05:45 40.38291 -3.44433 4136 ft 192 kts 321°
2026-05-06 05:45 40.39298 -3.45495 3986 ft 179 kts 323°
2026-05-06 05:45 40.40285 -3.46425 3791 ft 169 kts 326°
2026-05-06 05:45 40.41219 -3.47306 3432 ft 166 kts 324°
2026-05-06 05:46 40.42100 -3.48208 3185 ft 159 kts 322°
2026-05-06 05:46 40.42919 -3.49099 3034 ft 146 kts 321°
2026-05-06 05:46 40.43707 -3.49953 2744 ft 148 kts 322°
2026-05-06 05:46 40.44500 -3.50755 2417 ft 141 kts 325°
2026-05-06 05:47 40.45271 -3.51506 2314 ft 134 kts 324°
2026-05-06 05:47 40.46032 -3.52264 2216 ft 138 kts 322°
2026-05-06 05:47 40.46783 -3.53045 2060 ft 138 kts 323°
2026-05-06 05:47 40.47531 -3.53801 1939 ft 136 kts 323°
2026-05-06 05:48 40.48166 -3.54447 1936 ft 80 kts 323°
2026-05-06 05:48 40.48493 -3.54773 1943 ft 44 kts 321°
2026-05-06 05:48 40.48676 -3.54970 1951 ft 30 kts 319°
2026-05-06 05:48 40.48792 -3.55185 1955 ft 28 kts 294°
2026-05-06 05:49 40.48868 -3.55404 1954 ft 27 kts 299°
2026-05-06 05:49 40.48994 -3.55580 1956 ft 26 kts 321°
2026-05-06 05:49 40.49132 -3.55717 1961 ft 24 kts 324°
2026-05-06 05:49 40.49261 -3.55839 1963 ft 23 kts 323°
2026-05-06 05:50 40.49303 -3.56019 1962 ft 22 kts 268°
2026-05-06 05:50 40.49292 -3.56200 1963 ft 15 kts 249°
2026-05-06 05:50 40.49270 -3.56325 1967 ft 11 kts 270°
2026-05-06 05:50 40.49270 -3.56344 1967 ft 0 kts 270°